Date String (YYYY-MM-DD hh:mm:ss) UTC,Instrument flags,absolute air pressure of the measurement (hPa),sample flow rate (lpm),inlet stack bypass flow (lpm),air temperature of the measurement (°C),ambient temperature measured by the external sensor (°C),aerosol sample conditioner tube jacket temperature (°C),OPC LED temperature (°C),internal box temperature (°C),relative humidity of the measurement (%),span deviation,mass concentration of particles derived from Lorenz-Mie calculation of OPC scattering (μg/m³),mass concentration of particles derived from Lorenz-Mie calculation of OPC scattering (μg/m³),mass concentration of particles derived from Lorenz-Mie calculation of OPC scattering (μg/m³)
DateTimeUTC,F1_M11,P_M11,Q1_M11,Q2_M11,T1_M11,T2_M11,T3_M11,T4_M11,T5_M11,U1_M11,ZSPAN_M11,X0_M11,X2_M11,X1_M11
2023-10-01 00:00:00,SystemResetWarning,0825.4,5.01,000.00,027.9,024.5,000.0,036.3,029.4,16.5,0000.0,0008.62,0004.03,0003.58
2023-10-01 00:01:00,SystemResetWarning,0825.5,5.00,000.00,027.9,025.0,000.0,036.3,029.5,16.5,0000.0,0008.61,0004.01,0003.58
2023-10-01 00:02:00,SystemResetWarning,0825.5,5.00,000.00,027.9,025.4,000.0,036.3,029.6,16.6,0000.0,0008.51,0004.04,0003.57
2023-10-01 00:03:00,SystemResetWarning,0825.6,4.99,000.00,027.9,025.8,000.0,036.3,029.6,16.7,0000.0,0007.88,0004.05,0003.57
2023-10-01 00:04:00,SystemResetWarning,0825.6,4.99,000.00,027.9,026.1,000.0,036.4,029.7,16.7,0000.0,0007.49,0004.03,0003.56
2023-10-01 00:05:00,SystemResetWarning,0825.7,5.00,000.00,027.9,026.4,000.0,036.4,029.8,16.7,0000.0,0007.73,0004.04,0003.57
2023-10-01 00:06:00,SystemResetWarning,0825.8,5.00,000.00,028.0,026.7,000.0,036.4,029.9,16.7,0000.0,0008.08,0004.05,0003.56
2023-10-01 00:07:00,SystemResetWarning,0825.8,5.00,000.00,028.0,026.9,000.0,036.4,029.9,16.5,0000.0,0009.01,0004.06,0003.56
2023-10-01 00:08:00,SystemResetWarning,0825.9,5.01,000.00,028.1,027.1,000.0,036.4,030.0,16.4,0000.0,0008.81,0004.05,0003.55
2023-10-01 00:09:00,SystemResetWarning,0825.8,5.00,000.00,028.1,027.2,000.0,036.5,030.1,16.3,0000.0,0009.49,0004.04,0003.55
2023-10-01 00:10:00,SystemResetWarning,0825.9,4.99,000.00,028.2,026.7,000.0,036.5,030.1,16.3,0000.0,0009.80,0004.01,0003.55
2023-10-01 00:11:00,SystemResetWarning,0825.9,4.99,000.00,028.1,024.8,000.0,036.4,029.8,16.4,0000.0,0010.55,0004.02,0003.53
2023-10-01 00:12:00,SystemResetWarning,0825.9,5.01,000.00,028.0,024.1,000.0,036.4,029.6,16.6,0000.0,0011.30,0004.04,0003.53
2023-10-01 00:13:00,SystemResetWarning,0825.9,5.01,000.00,028.0,024.3,000.0,036.3,029.5,16.8,0000.0,0011.42,0004.00,0003.53
2023-10-01 00:14:00,SystemResetWarning,0825.9,5.01,000.00,027.9,024.6,000.0,036.3,029.4,17.1,0000.0,0012.62,0004.01,0003.53
2023-10-01 00:15:00,SystemResetWarning,0825.9,5.00,000.00,027.9,025.1,000.0,036.4,029.5,17.2,0000.0,0012.79,0004.02,0003.53
2023-10-01 00:16:00,SystemResetWarning,0826.0,5.01,000.00,027.9,025.5,000.0,036.4,029.6,17.3,0000.0,0013.96,0004.01,0003.52
2023-10-01 00:17:00,SystemResetWarning,0825.9,5.00,000.00,027.9,025.9,000.0,036.4,029.7,17.2,0000.0,0013.91,0004.03,0003.51
2023-10-01 00:18:00,SystemResetWarning,0825.9,5.00,000.00,027.9,026.2,000.0,036.4,029.7,17.1,0000.0,0013.19,0004.04,0003.50
2023-10-01 00:19:00,SystemResetWarning,0825.9,5.00,000.00,028.0,026.5,000.0,036.4,029.8,17.5,0000.0,0013.19,0004.02,0003.49
2023-10-01 00:20:00,SystemResetWarning,0825.9,5.00,000.00,028.0,026.7,000.0,036.4,029.9,18.2,0000.0,0012.29,0004.03,0003.48
2023-10-01 00:21:00,SystemResetWarning,0826.0,5.00,000.00,028.1,026.9,000.0,036.4,029.9,18.3,0000.0,0012.27,0004.07,0003.49
2023-10-01 00:22:00,SystemResetWarning,0826.0,5.00,000.00,028.1,027.1,000.0,036.4,030.0,18.1,0000.0,0012.04,0004.10,0003.49
2023-10-01 00:23:00,SystemResetWarning,0826.2,5.00,000.00,028.2,027.3,000.0,036.5,030.1,17.3,0000.0,0011.64,0004.13,0003.49
2023-10-01 00:24:00,SystemResetWarning,0826.2,4.99,000.00,028.2,027.2,000.0,036.5,030.1,16.6,0000.0,0011.66,0004.17,0003.50
2023-10-01 00:25:00,SystemResetWarning,0826.3,4.99,000.00,028.2,025.6,000.0,036.5,030.0,16.5,0000.0,0010.62,0004.16,0003.49
2023-10-01 00:26:00,SystemResetWarning,0826.4,5.00,000.00,028.1,024.2,000.0,036.4,029.7,16.7,0000.0,0010.95,0004.18,0003.49
2023-10-01 00:27:00,SystemResetWarning,0826.4,5.01,000.00,028.0,024.2,000.0,036.4,029.6,17.7,0000.0,0009.74,0004.23,0003.49
2023-10-01 00:28:00,SystemResetWarning,0826.3,5.01,000.00,027.9,024.5,000.0,036.4,029.5,18.3,0000.0,0009.50,0004.24,0003.49
2023-10-01 00:29:00,SystemResetWarning,0826.3,4.98,000.00,027.9,024.9,000.0,036.4,029.5,18.1,0000.0,0009.80,0004.22,0003.50
2023-10-01 00:30:00,SystemResetWarning,0826.4,5.00,000.00,027.9,025.3,000.0,036.4,029.6,17.6,0000.0,0010.38,0004.27,0003.50
2023-10-01 00:31:00,SystemResetWarning,0826.4,5.01,000.00,027.9,025.7,000.0,036.4,029.7,17.1,0000.0,0010.62,0004.28,0003.50
2023-10-01 00:32:00,SystemResetWarning,0826.4,5.00,000.00,027.9,026.1,000.0,036.4,029.7,17.3,0000.0,0010.80,0004.25,0003.49
2023-10-01 00:33:00,SystemResetWarning,0826.4,5.01,000.00,028.0,026.4,000.0,036.4,029.8,17.2,0000.0,0010.71,0004.22,0003.48
2023-10-01 00:34:00,SystemResetWarning,0826.4,5.00,000.00,028.0,026.6,000.0,036.4,029.9,17.4,0000.0,0010.44,0004.20,0003.47
2023-10-01 00:35:00,SystemResetWarning,0826.4,4.99,000.00,028.1,026.8,000.0,036.4,029.9,17.8,0000.0,0010.42,0004.19,0003.46
2023-10-01 00:36:00,SystemResetWarning,0826.5,4.99,000.00,028.1,027.0,000.0,036.5,030.0,17.9,0000.0,0010.29,0004.15,0003.45
2023-10-01 00:37:00,SystemResetWarning,0826.6,5.01,000.00,028.2,027.1,000.0,036.5,030.0,17.7,0000.0,0009.70,0004.12,0003.44
2023-10-01 00:38:00,SystemResetWarning,0826.6,5.01,000.00,028.2,027.2,000.0,036.5,030.1,17.1,0000.0,0009.67,0004.08,0003.43
2023-10-01 00:39:00,SystemResetWarning,0826.7,5.00,000.00,028.2,026.2,000.0,036.5,030.1,16.7,0000.0,0009.60,0004.04,0003.41
2023-10-01 00:40:00,SystemResetWarning,0826.8,4.99,000.00,028.2,024.4,000.0,036.5,029.8,17.3,0000.0,0009.35,0004.03,0003.40
2023-10-01 00:41:00,SystemResetWarning,0826.8,5.02,000.00,028.1,024.0,000.0,036.4,029.7,18.3,0000.0,0008.76,0004.01,0003.39
2023-10-01 00:42:00,SystemResetWarning,0826.6,4.99,000.00,028.0,024.2,000.0,036.4,029.5,19.0,0000.0,0008.34,0003.96,0003.37
2023-10-01 00:43:00,SystemResetWarning,0826.5,5.00,000.00,027.9,024.7,000.0,036.4,029.5,18.7,0000.0,0008.02,0003.94,0003.35
2023-10-01 00:44:00,SystemResetWarning,0826.5,5.01,000.00,027.9,025.1,000.0,036.4,029.5,18.8,0000.0,0008.06,0003.95,0003.34
2023-10-01 00:45:00,SystemResetWarning,0826.6,5.00,000.00,027.9,025.5,000.0,036.4,029.6,18.9,0000.0,0007.93,0003.92,0003.32
2023-10-01 00:46:00,SystemResetWarning,0826.6,5.00,000.00,027.9,025.8,000.0,036.4,029.6,18.3,0000.0,0007.90,0003.89,0003.31
2023-10-01 00:47:00,SystemResetWarning,0826.4,5.00,000.00,027.9,026.1,000.0,036.4,029.7,18.8,0000.0,0007.91,0003.90,0003.31
2023-10-01 00:48:00,SystemResetWarning,0826.3,5.00,000.00,027.9,026.4,000.0,036.4,029.8,18.8,0000.0,0008.19,0003.92,0003.30
2023-10-01 00:49:00,SystemResetWarning,0826.4,5.00,000.00,028.0,026.6,000.0,036.4,029.8,18.6,0000.0,0008.37,0003.95,0003.30
2023-10-01 00:50:00,SystemResetWarning,0826.3,5.00,000.00,028.0,026.7,000.0,036.4,029.9,17.6,0000.0,0009.24,0004.00,0003.30
2023-10-01 00:51:00,SystemResetWarning,0826.3,5.00,000.00,028.1,026.9,000.0,036.4,029.9,16.6,0000.0,0010.11,0004.04,0003.32
2023-10-01 00:52:00,SystemResetWarning,0826.2,5.00,000.00,028.1,027.0,000.0,036.5,030.0,16.5,0000.0,0010.19,0004.05,0003.31
2023-10-01 00:53:00,SystemResetWarning,0826.3,4.99,000.00,028.2,027.2,000.0,036.5,030.0,17.3,0000.0,0010.58,0004.07,0003.32
2023-10-01 00:54:00,SystemResetWarning,0826.3,5.00,000.00,028.2,027.3,000.0,036.5,030.1,18.4,0000.0,0011.26,0004.07,0003.32
2023-10-01 00:55:00,SystemResetWarning,0826.2,4.99,000.00,028.3,027.4,000.0,036.6,030.2,19.0,0000.0,0011.27,0004.08,0003.33
2023-10-01 00:56:00,SystemResetWarning,0826.3,4.99,000.00,028.3,026.4,000.0,036.6,030.1,18.6,0000.0,0012.31,0004.12,0003.35
2023-10-01 00:57:00,SystemResetWarning,0826.4,5.01,000.00,028.2,024.9,000.0,036.5,029.9,18.6,0000.0,0013.43,0004.19,0003.37
2023-10-01 00:58:00,SystemResetWarning,0826.3,5.01,000.00,028.2,024.8,000.0,036.5,029.9,19.1,0000.0,0014.01,0004.23,0003.39
2023-10-01 00:59:00,SystemResetWarning,0826.2,4.99,000.00,028.1,025.0,000.0,036.5,029.7,19.0,0000.0,0014.67,0004.26,0003.39
